When you browse on this site, cookies collect data to enhance your experience and personalize the content and advertising you see.
Visit our Privacy Policy to learn more. By continuing to use the site, you agree to this use of cookies and data.
  • In Hungary
  • List of Countries
  • For 7 days
  • Water Temperature
  • Satellite Maps
  • Weather Map
  • News
  • Weather Widgets
  • user-avatar
    Login

    Hourly Weather Skarbimierz

    Today, 17 December, Monday

    Time Temperature Precipitation Wind Pressure Humidity
    00:00 -3°C° 0 mm 2 mps 750 mmHg 80%
    01:00 -3°C° 0 mm 2 mps 750 mmHg 79%
    02:00 -3°C° 0 mm 2 mps 750 mmHg 81%
    03:00 -3°C° 0 mm 2 mps 750 mmHg 82%
    04:00 -3°C° 0 mm 2 mps 750 mmHg 83%
    05:00 -3°C° 0 mm 2 mps 750 mmHg 84%
    06:00 -3°C° 0 mm 2 mps 751 mmHg 85%
    07:00 -4°C° 0 mm 2 mps 751 mmHg 85%
    08:00 -3°C° 0 mm 2 mps 751 mmHg 84%
    09:00 -2°C° 0 mm 2 mps 752 mmHg 82%
    10:00 -2°C° 0 mm 2 mps 752 mmHg 80%
    11:00 +1°C° 0 mm 1 mps 752 mmHg 80%
    12:00 +2°C° 0 mm 1 mps 752 mmHg 79%
    13:00 +2°C° 0 mm 1 mps 752 mmHg 78%
    14:00 +1°C° 0 mm 1 mps 753 mmHg 81%
    15:00 +1°C° 0 mm 1 mps 753 mmHg 84%
    16:00 0°C° 0 mm 1 mps 754 mmHg 86%
    17:00 0°C° 0 mm 1 mps 754 mmHg 87%
    18:00 0°C° 0 mm 1 mps 755 mmHg 87%
    19:00 0°C° 0 mm 1 mps 755 mmHg 87%
    20:00 -2°C° 0 mm 2 mps 755 mmHg 87%
    21:00 -1°C° 0 mm 2 mps 756 mmHg 88%
    22:00 -1°C° 0 mm 2 mps 756 mmHg 88%
    23:00 -2°C° 0 mm 2 mps 756 mmHg 88%

    Tomorrow, 18 December, Tuesday

    Time Temperature Precipitation Wind Pressure Humidity
    00:00 -2°C° 0 mm 2 mps 756 mmHg 89%
    01:00 -2°C° 0 mm 2 mps 757 mmHg 89%
    02:00 -2°C° 0 mm 2 mps 757 mmHg 89%
    03:00 -2°C° 0 mm 2 mps 757 mmHg 89%
    04:00 -2°C° 0 mm 2 mps 757 mmHg 88%
    05:00 -2°C° 0 mm 2 mps 757 mmHg 88%
    06:00 -1°C° 0 mm 2 mps 757 mmHg 87%
    07:00 +1°C° 0 mm 1 mps 757 mmHg 87%
    08:00 +1°C° 0 mm 1 mps 757 mmHg 86%
    09:00 +2°C° 0 mm 1 mps 757 mmHg 85%
    10:00 +1°C° 0 mm 2 mps 757 mmHg 84%
    11:00 +3°C° 0 mm 1 mps 757 mmHg 84%
    12:00 +3°C° 0 mm 1 mps 757 mmHg 84%
    13:00 +4°C° 0 mm 1 mps 756 mmHg 83%
    14:00 +3°C° 0 mm 1 mps 756 mmHg 84%
    15:00 +2°C° 0 mm 1 mps 756 mmHg 85%
    16:00 +2°C° 0 mm 1 mps 756 mmHg 87%
    17:00 -1°C° 0 mm 2 mps 756 mmHg 87%
    18:00 -1°C° 0 mm 2 mps 756 mmHg 88%
    19:00 -1°C° 0 mm 2 mps 756 mmHg 88%
    20:00 -1°C° 0 mm 2 mps 756 mmHg 89%
    21:00 -2°C° 0 mm 2 mps 756 mmHg 89%
    22:00 -2°C° 0 mm 2 mps 755 mmHg 89%
    23:00 -2°C° 0 mm 2 mps 755 mmHg 89%

    Day after tomorrow, 19 December, Wednesday

    Time Temperature Precipitation Wind Pressure Humidity
    00:00 -2°C° 0 mm 3 mps 755 mmHg 89%
    01:00 -2°C° 0 mm 3 mps 755 mmHg 89%
    02:00 -2°C° 0 mm 3 mps 754 mmHg 89%
    03:00 -2°C° 0 mm 3 mps 754 mmHg 89%
    04:00 -2°C° 0 mm 3 mps 754 mmHg 89%
    05:00 -2°C° 0 mm 3 mps 754 mmHg 88%
    06:00 -2°C° 0 mm 3 mps 754 mmHg 87%
    07:00 -2°C° 0 mm 3 mps 753 mmHg 87%
    08:00 -2°C° 0 mm 3 mps 753 mmHg 84%
    09:00 -1°C° 0 mm 3 mps 753 mmHg 81%
    10:00 -1°C° 0 mm 4 mps 753 mmHg 79%
    11:00 -1°C° 0 mm 4 mps 753 mmHg 77%
    12:00 +1°C° 0 mm 3 mps 753 mmHg 75%
    13:00 +1°C° 0 mm 3 mps 753 mmHg 73%
    14:00 +1°C° 0 mm 3 mps 752 mmHg 75%
    15:00 -1°C° 0 mm 4 mps 752 mmHg 77%
    16:00 -2°C° 0 mm 4 mps 752 mmHg 79%
    17:00 -2°C° 0 mm 4 mps 752 mmHg 79%
    18:00 -2°C° 0 mm 4 mps 752 mmHg 80%
    19:00 -3°C° 0 mm 4 mps 752 mmHg 80%
    20:00 -3°C° 0 mm 4 mps 752 mmHg 79%
    21:00 -2°C° 0 mm 4 mps 752 mmHg 78%
    22:00 -2°C° 0 mm 4 mps 752 mmHg 77%
    23:00 -1°C° 0 mm 3 mps 752 mmHg 77%

    20 December, Thursday

    Time Temperature Precipitation Wind Pressure Humidity
    00:00 -2°C° 0 mm 3 mps 751 mmHg 76%
    01:00 -2°C° 0 mm 3 mps 751 mmHg 76%
    02:00 -2°C° 0 mm 3 mps 751 mmHg 77%
    03:00 -2°C° 0 mm 3 mps 751 mmHg 77%
    04:00 -2°C° 0 mm 3 mps 751 mmHg 78%
    05:00 -2°C° 0 mm 3 mps 751 mmHg 78%
    06:00 -2°C° 0 mm 3 mps 751 mmHg 78%
    07:00 -2°C° 0 mm 3 mps 751 mmHg 79%
    08:00 -2°C° 0 mm 3 mps 751 mmHg 77%
    09:00 -1°C° 0 mm 3 mps 751 mmHg 76%
    10:00 -1°C° 0 mm 3 mps 751 mmHg 75%
    11:00 -1°C° 0 mm 3 mps 751 mmHg 74%
    12:00 0°C° 0 mm 3 mps 751 mmHg 72%
    13:00 0°C° 0 mm 3 mps 750 mmHg 71%
    14:00 0°C° 0 mm 3 mps 750 mmHg 74%
    15:00 -1°C° 0 mm 3 mps 750 mmHg 77%
    16:00 -1°C° 0 mm 2 mps 750 mmHg 79%
    17:00 -1°C° 0 mm 2 mps 750 mmHg 80%
    18:00 -1°C° 0 mm 2 mps 750 mmHg 81%
    19:00 -1°C° 0 mm 2 mps 750 mmHg 81%
    20:00 -1°C° 0.2 mm 2 mps 750 mmHg 83%
    21:00 -1°C° 0.2 mm 2 mps 750 mmHg 85%
    22:00 -1°C° 0.2 mm 2 mps 750 mmHg 87%
    23:00 -1°C° 0.4 mm 2 mps 750 mmHg 89%

    21 December, Friday

    Time Temperature Precipitation Wind Pressure Humidity
    00:00 -1°C° 0.4 mm 2 mps 750 mmHg 90%
    01:00 -1°C° 0.4 mm 2 mps 750 mmHg 91%
    02:00 -1°C° 0.5 mm 2 mps 750 mmHg 92%
    03:00 -1°C° 0.5 mm 2 mps 750 mmHg 92%
    04:00 -1°C° 0.5 mm 2 mps 750 mmHg 93%
    05:00 -1°C° 0.3 mm 2 mps 750 mmHg 93%
    06:00 +1°C° 0.3 mm 2 mps 750 mmHg 93%
    07:00 +1°C° 0.3 mm 2 mps 750 mmHg 93%
    08:00 +1°C° 0.1 mm 2 mps 750 mmHg 93%
    09:00 +1°C° 0.1 mm 2 mps 750 mmHg 93%
    10:00 +1°C° 0.1 mm 2 mps 750 mmHg 93%
    11:00 +2°C° 0 mm 2 mps 750 mmHg 93%
    12:00 +2°C° 0 mm 2 mps 750 mmHg 93%
    13:00 +2°C° 0 mm 2 mps 749 mmHg 93%
    14:00 +2°C° 0 mm 2 mps 749 mmHg 92%
    15:00 +1°C° 0 mm 2 mps 749 mmHg 91%
    16:00 -1°C° 0 mm 2 mps 749 mmHg 89%
    17:00 -1°C° 0 mm 2 mps 749 mmHg 89%
    18:00 -1°C° 0 mm 2 mps 749 mmHg 90%
    19:00 -1°C° 0 mm 3 mps 748 mmHg 90%
    20:00 -1°C° 0 mm 3 mps 748 mmHg 89%
    21:00 -1°C° 0 mm 3 mps 748 mmHg 89%
    22:00 0°C° 0 mm 3 mps 747 mmHg 89%
    23:00 0°C° 0.2 mm 3 mps 747 mmHg 89%

    22 December, Saturday

    Time Temperature Precipitation Wind Pressure Humidity
    00:00 -1°C° 0.2 mm 4 mps 746 mmHg 89%
    01:00 0°C° 0.2 mm 4 mps 746 mmHg 88%
    02:00 0°C° 0.5 mm 4 mps 745 mmHg 88%
    03:00 0°C° 0.5 mm 5 mps 745 mmHg 88%
    04:00 0°C° 0.5 mm 5 mps 744 mmHg 88%
    05:00 0°C° 0.8 mm 5 mps 744 mmHg 89%
    06:00 0°C° 0.8 mm 5 mps 743 mmHg 90%
    07:00 +1°C° 0.8 mm 5 mps 743 mmHg 92%
    08:00 +1°C° 0.4 mm 5 mps 743 mmHg 92%
    09:00 +2°C° 0.4 mm 5 mps 743 mmHg 92%
    10:00 +2°C° 0.4 mm 6 mps 744 mmHg 92%
    11:00 +3°C° 0 mm 6 mps 744 mmHg 91%
    12:00 +3°C° 0 mm 6 mps 744 mmHg 90%
    13:00 +3°C° 0 mm 5 mps 744 mmHg 89%
    14:00 +3°C° 0 mm 5 mps 744 mmHg 89%
    15:00 +2°C° 0 mm 5 mps 745 mmHg 90%
    16:00 +3°C° 0 mm 4 mps 745 mmHg 90%
    17:00 +3°C° 0.2 mm 4 mps 745 mmHg 91%
    18:00 +3°C° 0.2 mm 4 mps 745 mmHg 91%
    19:00 +3°C° 0.2 mm 4 mps 745 mmHg 92%
    20:00 +3°C° 0.2 mm 4 mps 746 mmHg 92%
    21:00 +3°C° 0.2 mm 4 mps 746 mmHg 92%
    22:00 +3°C° 0.2 mm 4 mps 746 mmHg 92%
    23:00 +3°C° 0.1 mm 4 mps 747 mmHg 92%
    Show more